Main page
METAR-TAF:

METAR-TAF

Airports :

Lavan Airport

Lavan Island, Iran

latitude: 26-48-37N, longitude: 53-21-22E, elevation: 23 m

Current weather observation

The report was made 1 hour and 20 minutes ago, at 15:00 UTC
Wind 23 kt from the West/Northwest
Temperature 21°C
Humidity 78%
Pressure 1012 hPa
Visibility: 3500 m
Scattered clouds at a height of 3500 ft
Broken clouds at a height of 10000 ft
sand

METAR: OIBV 171500Z 30023KT 3500 SA SCT035 BKN100 21/17 Q1012

Time: 19:50 (16:20 UTC)


TAF: missing

Weather observations and forecasts of more than 4000 airports (METAR and TAF reports).

The available stations are represented by yellow and red dots on the map.

Hover mouse over dot to see the name of the station.

Then click to see weather observations and forecasts.

To change the map : click on the green buttons with a black cross to zoom in, on the green button with a dash to zoom out, or on the green arrows for adjacent maps.


METAR-TAF: